Address 0x798625316cbb12e06ece6de8d422b954f7c5516f

 
 
Txn Hash
Block
From
To
Value [Txn Fee]
0x8806937fdc720fccedfb8df15e3f8b8b5e5f3d713ebce24650689bff94b5daf094408712021-07-24 15:51:333 mins ago0x798625316cbb12e06ece6de8d422b954f7c5516fOUT 0xb16162b7a8351e0e8a51f99deb3c3e98f7c0d22a0 BNB0.000184245
0x46b59eb40c48ee718c4071c20d160c942e6a8767e8e5818a9d222a900c3cd2a694408582021-07-24 15:50:543 mins ago0x798625316cbb12e06ece6de8d422b954f7c5516fSELF0x798625316cbb12e06ece6de8d422b954f7c5516f0 BNB0.00011655
0xa43bbeab6ee28a13d776783612eeb4dbdb0eb97cc6ab787f87fb042443b7186d94408112021-07-24 15:48:336 mins ago0x798625316cbb12e06ece6de8d422b954f7c5516fOUT 0xb16162b7a8351e0e8a51f99deb3c3e98f7c0d22a0 BNB0.00129822
0x4041ac4209ac52a271b9d3f9db148a94ec0d55e2fc5d974328ad2b006047ee0f94407802021-07-24 15:47:007 mins ago0x798625316cbb12e06ece6de8d422b954f7c5516fOUT 0x403473f684d791a3646c7539158f11784977d2c10 BNB0.000175375
0x60342e8e1ca5a4b937abeafc11dbbc5e77bf9d7295954fbbb1bc6d2b094b5fff94407362021-07-24 15:44:489 mins ago0x798625316cbb12e06ece6de8d422b954f7c5516fOUT 0xc93ec71d4f607208afd4e5c655b250bfc62ee3620 BNB0.000221034
0x1d3cb6a0932c525e44b5555108d42d2db8d3c3689830852b9ce7d6d1546bf28594406922021-07-24 15:42:2912 mins ago0x798625316cbb12e06ece6de8d422b954f7c5516fOUT 0xd3bc4bcfdc268c5be3c08e409de8f748063014430 BNB0.000184185
0xd215eb0731d128e62be858b66a88136abb3c7841f30b2dfe37bdb88b0747aba894406172021-07-24 15:38:4015 mins ago0x798625316cbb12e06ece6de8d422b954f7c5516fOUT 0x349972aab1f3f1e130c474a967d24a877bf589860 BNB0.000220915
0x1681b268331bfcaa5e14f113a60d526e017fe73c0626137968c62822a5a6ffb594405982021-07-24 15:37:4316 mins ago0x798625316cbb12e06ece6de8d422b954f7c5516fOUT 0xd3bc4bcfdc268c5be3c08e409de8f748063014430 BNB0.000175315
0xcb4a784c777b8ef3cf64fcf35bc1f73c3760f3646fa9d4f900019fe0dcd8bdcc94405552021-07-24 15:35:3419 mins ago0x798625316cbb12e06ece6de8d422b954f7c5516fOUT 0xdf27384476617d8fe75fec603f2458be8d9b30760 BNB0.0002068611
0x142e1e8de03f0a1f2123898e42cf94c3dda34be7216658c751c1d2e0cf51a58494404392021-07-24 15:29:4124 mins ago0x798625316cbb12e06ece6de8d422b954f7c5516fOUT 0xdf27384476617d8fe75fec603f2458be8d9b30760 BNB0.00018431
0x8fd383751f4bc1c44161dfedd0c84710594945f9e9b05564423e5115c93db87894403112021-07-24 15:22:5731 mins ago0x798625316cbb12e06ece6de8d422b954f7c5516fOUT 0xdf27384476617d8fe75fec603f2458be8d9b30760 BNB0.000221245
0xcf78687b578bedaee3d4cb3f8d84d5395a81729d77c0218f5c89207b86dd7a5894403022021-07-24 15:22:2432 mins ago0x798625316cbb12e06ece6de8d422b954f7c5516fOUT 0x5d458938918e00e5e41d88009d55ec2e8c2f5bb10 BNB0.001967943494
0x038957ce8315e6bb59a27eea6f1da622952fdeef17e8c1d0cf8223685baf4b2c94402872021-07-24 15:21:3033 mins ago0x798625316cbb12e06ece6de8d422b954f7c5516fSELF0x798625316cbb12e06ece6de8d422b954f7c5516f0 BNB0.00011655
0xae265480830a64fe291054e6066ce2dc45fa9c62ef14492d146d0bd594f5bf7a94401722021-07-24 15:15:2639 mins ago0x798625316cbb12e06ece6de8d422b954f7c5516fOUT 0xdf27384476617d8fe75fec603f2458be8d9b30760 BNB0.00020314
0xeacb47745f6c1f6ab68b120e011b34b00ea7bde0bd0a2e49015a8f6ea841e17494401192021-07-24 15:12:1942 mins ago0x798625316cbb12e06ece6de8d422b954f7c5516fOUT 0x8f7b5623bf5baeae5f9f33b296d8239647b038000 BNB0.0001878177
0xe5da59e15d9854b414f85df5631c4b58c55f4e82cbd46bb3569c9d086152296094401112021-07-24 15:11:4742 mins ago0x798625316cbb12e06ece6de8d422b954f7c5516fOUT 0x5d458938918e00e5e41d88009d55ec2e8c2f5bb10 BNB0.0002163981
0xda5c27279fe29135b1d52b8398c4d26df3e40adee3587de83c3aff70b65df4c494401012021-07-24 15:11:1743 mins ago0x798625316cbb12e06ece6de8d422b954f7c5516fSELF0x798625316cbb12e06ece6de8d422b954f7c5516f0 BNB0.00011655
0xcf957b34a17523f8280a2a6b415d97f4739683a8355399c19c76b6024f3ade2594400782021-07-24 15:10:0544 mins ago0x798625316cbb12e06ece6de8d422b954f7c5516fOUT 0xdf27384476617d8fe75fec603f2458be8d9b30760 BNB0.000184365
0x474af402ba0e78d081018d1cff0a6aadfef8dce1153109a2f700addc67ff2e4a94400512021-07-24 15:08:2946 mins ago0x798625316cbb12e06ece6de8d422b954f7c5516fOUT 0x403473f684d791a3646c7539158f11784977d2c10 BNB0.0001877565
0x8dbd9616622518ff6202767e0d22740e42589f1d45d0f60e27899471bfad4f8294400292021-07-24 15:07:0947 mins ago0x798625316cbb12e06ece6de8d422b954f7c5516fOUT 0xb16162b7a8351e0e8a51f99deb3c3e98f7c0d22a0 BNB0.0002163318
0x1c00e68c8db5b4718a7adaaf7955d34b0149cfc432b5bf89df9038e0e249b9c194399842021-07-24 15:04:4649 mins ago0x798625316cbb12e06ece6de8d422b954f7c5516fOUT 0x16d12bbdd19bf74290afc72feeedc726a1904da90 BNB0.00018425
0xc1b707728cf5da18b54657cf078cc8e07164ad68e098b57740df5669f7e4972794398682021-07-24 14:58:4255 mins ago0x798625316cbb12e06ece6de8d422b954f7c5516fOUT 0x5d458938918e00e5e41d88009d55ec2e8c2f5bb10 BNB0.0002069631
0xbe327eee9e2c3c19df6251b1ad6d560bd9212f29dbe3783147e9a6c73c8b9a9294398172021-07-24 14:56:0958 mins ago0x798625316cbb12e06ece6de8d422b954f7c5516fOUT 0x5d458938918e00e5e41d88009d55ec2e8c2f5bb10 BNB0.000210306
0xcce3a4ea97e3f5ece93e0e16420fa7738ddc4c7da39b25bfcd0b46c2315bb4d994397652021-07-24 14:53:331 hr 1 min ago0x798625316cbb12e06ece6de8d422b954f7c5516fOUT 0xdf27384476617d8fe75fec603f2458be8d9b30760 BNB0.0002069019
0x03f9ce9855e59863aa0516d542caf7a3101879f33c37d6fbbd98ef81ae4e709494397082021-07-24 14:50:411 hr 3 mins ago0x798625316cbb12e06ece6de8d422b954f7c5516fOUT 0xdf27384476617d8fe75fec603f2458be8d9b30760 BNB0.000210306
[ Download CSV Export 
Parent Txn Hash Block From To Value
Loading

Contract Name:
0 BNB

Compiler Version
0

Optimization Enabled:
0 BNB

Other Settings:
-NA-
Block Transaction Gas Used Reward
Age Block Fee Address BC Fee Address Voting Power Jailed Incoming
Block Uncle Number Difficulty Gas Used Reward
Loading
Loading
Make sure to use the "Vote Down" button for any spammy posts, and the "Vote Up" for interesting conversations.